MEASAT-3A

Last updated on Jan. 29, 2020, 4:37 a.m. UTC

1 35362U 09032A   20028.73295449 -.00000243  00000-0  00000-0 0  9998
2 35362   0.0580 236.3607 0002303  49.0787 197.3512  1.00270775 38877
UTC
Height (km)
Latitude
Longitude
Inclination
Orbital Period
UTC large
Height (km)
Speed (km/s)
/
Latitude / Longitude
Inclination (degrees)
Orbital Period (minutes)
Azimuth
Elevation
Range (km)
Doppler Factor
iOS Compass Heading
iOS Angle

Next 30 passes for location: Hong Kong

Rise time Rise Azimuth (degrees) Set time Set Azimuth (degrees) Duration Max altitude (degrees)

No matching passes for this satellites